Weather History for 11813 - April, 2014

Change the Weather History Date:

Wednesday, April 23, 2014

  Actual Average Record
Temperature  
Mean Temperature 60 °F -  
Max Temperature 70 °F - - ()
Min Temperature 50 °F - - ()
Degree Days  
Heating Degree Days 5    
Growing Degree Days 10 (Base 50)    
Moisture  
Dew Point 52 °F    
Average Humidity 68    
Maximum Humidity 94    
Minimum Humidity 38    
Precipitation  
Precipitation 0.00 in - - ()
Sea Level Pressure  
Sea Level Pressure 30.03 in    
Wind  
Wind Speed 2 mph ()    
Max Wind Speed 7 mph    
Max Gust Speed -    
Visibility 5.7 miles    
Events Fog , Rain    
T = Trace of Precipitation, MM = Missing Value Source: Averaged Metar Reports

Daily Weather History Graph

Daily Weather History Graph

Search for Another Location

Airport or City:

Trip Planner

Search our weather history database for the weather conditions in past years. The results will help you decide how hot, cold, wet, or windy it might be!

Date:

Astronomy

Apr. 23, 2014 Rise Set
Actual Time 5:47 AM CEST 7:53 PM CEST
Civil Twilight 5:13 AM CEST 8:27 PM CEST
Nautical Twilight 4:31 AM CEST 9:09 PM CEST
Astronomical Twilight 3:45 AM CEST 9:56 PM CEST
Moon 2:36 AM CEST (4/23) 1:13 PM CEST (4/23)
Length of Visible Light 15h 13m
Length of Day
14h 06m
Last Quarter, 38% of the Moon is Illuminated
Apr 23
Last Quarter
Apr 29
New
May 7
First Quarter
May 14
Full
May 21
Last Quarter

Hourly Weather History & Observations

Time (CEST) Temp. Dew Point Humidity Pressure Visibility Wind Dir Wind Speed Gust Speed Precip Events Conditions
12:00 AM 55 °F 53 °F 88% 30.00 in - Calm Calm - -  
1:00 AM 55 °F 53 °F 88% 30.01 in - Calm Calm - -  
2:00 AM 54 °F 52 °F 91% 30.01 in - 2.2 mph - -  
3:00 AM 55 °F 51 °F 83% 30.02 in - 2.2 mph - -  
4:00 AM 54 °F 52 °F 89% 30.02 in - 4.5 mph - -  
5:00 AM 52 °F 51 °F 94% 30.05 in - 2.2 mph - -  
6:00 AM 51 °F 50 °F 93% 30.06 in - Calm Calm - -  
7:00 AM 52 °F 51 °F 94% 30.06 in - Calm Calm - -  
8:00 AM 57 °F 54 °F 86% 30.05 in 1 mi NW 4.5 mph - - Fog Light Fog
9:00 AM 58 °F 53 °F 77% 30.07 in 1 mi NW 4.5 mph - -   Mist
10:00 AM 63 °F 53 °F 61% 30.06 in 5 mi 4.5 mph - - Fog Light Fog
11:00 AM 64 °F 54 °F 61% 30.07 in 5 mi WNW 4.5 mph - - Fog Light Fog
12:00 PM 65 °F 54 °F 60% 30.07 in 7 mi NW 4.5 mph - - Rain Light Rain Showers
1:00 PM 67 °F 57 °F 63% 30.05 in 9 mi West 6.7 mph - - Rain Light Rain Showers
2:00 PM 68 °F 53 °F 49% 30.04 in 12 mi West 6.7 mph - -   Partly Cloudy
3:00 PM 69 °F 51 °F 43% 30.01 in 22 mi West 4.5 mph - -   Scattered Clouds
4:00 PM 69 °F 51 °F 41% 30.01 in - 6.7 mph - -  
5:00 PM 70 °F 50 °F 38% 29.99 in - 4.5 mph - -  
6:00 PM 68 °F 50 °F 42% 29.99 in - 2.2 mph - -  
7:00 PM 65 °F 52 °F 52% 29.99 in - 2.2 mph - -  
8:00 PM 62 °F 52 °F 62% 30.01 in - 4.5 mph - -  
9:00 PM 60 °F 50 °F 60% 30.04 in - 4.5 mph - -  
10:00 PM 60 °F 50 °F 60% 30.03 in - 4.5 mph - -  
11:00 PM 59 °F 48 °F 59% 30.03 in - 2.2 mph - -